Pecs, Hungary

1:29 PM CEST on April 25, 2017 (GMT +0200)
Pecs

Weather History for LHPP - July, 2013

Change the Weather History Date:

Tuesday, July 30, 2013

  Actual Average Record
Temperature  
Mean Temperature 73 °F -  
Max Temperature 80 °F 79 °F - ()
Min Temperature 66 °F 58 °F - ()
Cooling Degree Days 8    
Growing Degree Days 23 (Base 50)    
Moisture  
Dew Point 57 °F    
Average Humidity 58    
Maximum Humidity 88    
Minimum Humidity 35    
Precipitation  
Precipitation 0.02 in 0.08 in - ()
Sea Level Pressure  
Sea Level Pressure 30.02 in    
Wind  
Wind Speed 11 mph ()    
Max Wind Speed 21 mph    
Max Gust Speed 36 mph    
Visibility 6.3 miles    
Events Rain , Thunderstorm    
T = Trace of Precipitation, MM = Missing Value Source: Averaged Metar Reports

Daily Weather History Graph

Daily Weather History Graph

Search for Another Location

Airport or City:

Trip Planner

Search our weather history database for the weather conditions in past years. The results will help you decide how hot, cold, wet, or windy it might be!

Date:

Astronomy

Jul. 30, 2013 Rise Set
Actual Time 5:27 AM CEST 8:19 PM CEST
Civil Twilight 4:52 AM CEST 8:53 PM CEST
Nautical Twilight 4:07 AM CEST 9:38 PM CEST
Astronomical Twilight 3:14 AM CEST 10:30 PM CEST
Moon No Moon Rise 2:19 PM CEST (7/30)
Length of Visible Light 16h 01m
Length of Day
14h 52m
Last Quarter, 43% of the Moon is Illuminated
Jul 30
Last Quarter
Aug 6
New
Aug 14
First Quarter
Aug 21
Full
Aug 28
Last Quarter

Hourly Weather History & Observations

Time (CEST) Temp. Dew Point Humidity Pressure Visibility Wind Dir Wind Speed Gust Speed Precip Events Conditions
12:45 AM 77.0 °F 51.8 °F 41% 29.95 in 6.2 mi WNW 11.5 mph - N/A   Partly Cloudy
1:08 AM 77.0 °F 51.8 °F 41% 29.92 in 6.2 mi WNW 12.7 mph - N/A Thunderstorm Thunderstorm
1:24 AM 77.0 °F 51.8 °F 41% 29.98 in - WNW 16.1 mph 27.6 mph N/A   Unknown
1:25 AM 77.0 °F 51.8 °F 41% 29.95 in 6.2 mi West 16.1 mph - N/A Rain , Thunderstorm Thunderstorms and Rain
1:35 AM 73.4 °F 59.0 °F 61% 29.95 in - West 20.7 mph - N/A   Unknown
1:45 AM 69.8 °F 60.8 °F 73% 29.95 in 6.2 mi WNW 17.3 mph 35.7 mph N/A Rain , Thunderstorm Thunderstorms and Rain
2:00 AM 70 °F 60 °F 63% 29.94 in 9 mi WNW 17.9 mph - - Rain , Thunderstorm Thunderstorms and Rain
2:00 AM 68.0 °F 60.8 °F 78% 29.98 in - West 9.2 mph - N/A   Unknown
2:45 AM 68.0 °F 62.6 °F 83% 29.95 in 6.2 mi NW 2.3 mph - N/A Rain , Thunderstorm Thunderstorms and Rain
3:45 AM 66.2 °F 62.6 °F 88% 29.95 in 6.2 mi NNE 2.3 mph - N/A   Overcast
4:45 AM 68.0 °F 62.6 °F 83% 29.98 in 6.2 mi SW 2.3 mph - N/A   Overcast
5:45 AM 68.0 °F 62.6 °F 83% 29.98 in 6.2 mi North 6.9 mph - N/A   Overcast
6:15 AM 66.2 °F 62.6 °F 88% 29.98 in 6.2 mi North 9.2 mph - N/A   Mostly Cloudy
6:45 AM 68.0 °F 62.6 °F 83% 29.98 in 6.2 mi North 9.2 mph - N/A   Scattered Clouds
7:00 AM - - N/A% - 6.2 mi North 11.5 mph - N/A   Scattered Clouds
7:15 AM 68.0 °F 60.8 °F 78% 30.01 in 6.2 mi North 11.5 mph - N/A   Scattered Clouds
7:45 AM 69.8 °F 62.6 °F 78% 30.01 in 6.2 mi North 10.4 mph - N/A   Scattered Clouds
8:00 AM 71 °F 62 °F 65% 29.99 in 47 mi North 8.9 mph - -   Partly Cloudy
8:15 AM 71.6 °F 59.0 °F 64% 30.04 in 6.2 mi North 13.8 mph - N/A   Mostly Cloudy
8:26 AM 69.8 °F 59.0 °F 68% 30.04 in - North 11.5 mph 27.6 mph N/A   Unknown
8:45 AM 71.6 °F 59.0 °F 64% 30.04 in 6.2 mi North 10.4 mph 23.0 mph N/A   Mostly Cloudy
9:15 AM 71.6 °F 55.4 °F 57% 30.04 in 6.2 mi North 13.8 mph - N/A   Mostly Cloudy
9:45 AM 71.6 °F 57.2 °F 60% 30.04 in 6.2 mi North 16.1 mph 27.6 mph N/A   Mostly Cloudy
10:00 AM - - N/A% - 6.2 mi North 13.8 mph 25.3 mph N/A   Partly Cloudy
10:15 AM 71.6 °F 57.2 °F 60% 30.06 in 6.2 mi NNW 16.1 mph 29.9 mph N/A   Mostly Cloudy
10:45 AM 68.0 °F 59.0 °F 73% 30.06 in 6.2 mi NNW 10.4 mph - N/A Rain Light Rain
11:15 AM 69.8 °F 60.8 °F 73% 30.06 in 6.2 mi NW 6.9 mph - N/A   Mostly Cloudy
11:45 AM 73.4 °F 59.0 °F 61% 30.06 in 6.2 mi NNW 11.5 mph - N/A   Mostly Cloudy
12:15 PM 73.4 °F 57.2 °F 57% 30.06 in 6.2 mi NNW 11.5 mph - N/A   Mostly Cloudy
12:45 PM 73.4 °F 57.2 °F 57% 30.06 in 6.2 mi NW 11.5 mph - N/A   Mostly Cloudy
1:00 PM - - N/A% - 6.2 mi NNW 11.5 mph - N/A   Partly Cloudy
1:15 PM 73.4 °F 57.2 °F 57% 30.06 in 6.2 mi NW 11.5 mph - N/A   Mostly Cloudy
1:45 PM 77.0 °F 57.2 °F 50% 30.06 in 6.2 mi North 11.5 mph - N/A   Mostly Cloudy
2:00 PM 76 °F 57 °F 42% 30.04 in 47 mi North 11.2 mph - -   Partly Cloudy
2:15 PM 75.2 °F 57.2 °F 53% 30.06 in 6.2 mi NW 10.4 mph - N/A   Partly Cloudy
2:45 PM 77.0 °F 57.2 °F 50% 30.06 in 6.2 mi NW 11.5 mph - N/A   Mostly Cloudy
3:09 PM 78.8 °F 55.4 °F 44% 30.04 in - NNW 13.8 mph 29.9 mph N/A   Unknown
3:15 PM 78.8 °F 57.2 °F 47% 30.04 in 6.2 mi NNW 13.8 mph 28.8 mph N/A   Mostly Cloudy
3:45 PM 77.0 °F 55.4 °F 47% 30.04 in 6.2 mi North 15.0 mph 27.6 mph N/A   Mostly Cloudy
4:00 PM - - N/A% - - NNW 13.8 mph 27.6 mph N/A   Clear
4:15 PM 78.8 °F 55.4 °F 44% 30.04 in - North 15.0 mph - N/A   Clear
4:45 PM 78.8 °F 55.4 °F 44% 30.04 in - North 16.1 mph 29.9 mph N/A   Clear
5:15 PM 78.8 °F 53.6 °F 42% 30.04 in - North 17.3 mph - N/A   Clear
5:45 PM 78.8 °F 53.6 °F 42% 30.04 in - NNW 13.8 mph - N/A   Clear
6:15 PM 78.8 °F 51.8 °F 39% 30.04 in - North 13.8 mph - N/A   Clear
6:45 PM 78.8 °F 51.8 °F 39% 30.04 in - NNW 12.7 mph - N/A   Clear
7:15 PM 77.0 °F 51.8 °F 41% 30.04 in - NNW 12.7 mph - N/A   Clear
7:45 PM 75.2 °F 53.6 °F 47% 30.04 in - NNW 6.9 mph - N/A   Clear
8:00 PM 76 °F 54 °F 35% 30.01 in 47 mi NNW 6.7 mph - -   Partly Cloudy
8:15 PM 73.4 °F 55.4 °F 53% 30.06 in - North 4.6 mph - N/A   Clear
8:45 PM 71.6 °F 53.6 °F 53% 30.06 in - NNW 2.3 mph - N/A   Clear
9:15 PM 73.4 °F 53.6 °F 50% 30.06 in - NNW 4.6 mph - N/A   Clear
9:45 PM 71.6 °F 55.4 °F 57% 30.06 in - NNW 5.8 mph - N/A   Clear
10:45 PM 71.6 °F 55.4 °F 57% 30.09 in - West 3.5 mph - N/A   Clear
11:45 PM 68.0 °F 55.4 °F 64% 30.09 in - NW 6.9 mph - N/A   Clear